www.pogodaiklimat.ru

Погода и климат >> Архив погоды >> Россия >> Магаданская область >> Сусуман


ПОГОДА в Сусумане

  • Прогноз погоды в Сусумане
  • Монитор погоды в Сусумане
  • Климат города

АРХИВ ПОГОДЫ в Сусумане

Время (UTC), дата Ветер
(напр.,м/с)
 
Видим.   Явления Облачность Т
(С)
Тd
(С)
f
(%)
Тe
(С)
Тes
(С)
Комфортность P
(гПа)
Po
(гПа)
Тmin
(С)
Tmax
(С)
R
(мм)
R24
(мм)
S
(см)
09 18.04 штиль 0 50 км 6/6 1200 м
[Sc]
-2.4 -12.7 45 -3 -3 1017.8 937.7 -0.3
12 18.04 Ю 2 50 км 3/0
[Ac trans]
-12.5 -16.0 75 -17 -17 1022.6 939.1
15 18.04 Ю 2 50 км 3/0
[Ac trans]
-12.5 -16.0 75 -17 -17 1022.6 939.1
18 18.04 СВ 1 50 км ясно -21.3 -23.4 83 -24 -24 1028.6 941.8
21 18.04 СВ 2 50 км ясно -15.8 -19.0 76 -21 -19 1027.4 942.5 -22.1 20
00 19.04 штиль 0 50 км ясно -4.6 -14.7 45 -5 +5 1024.1 942.9
03 19.04 ЮЗ 3 50 км ясно -0.9 -12.2 42 -5 +3 1022.3 942.2
06 19.04 ЮЗ 2 50 км ясно +0.3 -13.0 36 -2 +2 1021.4 941.7
09 19.04 З 1 50 км ясно -1.0 -13.1 39 -2 -2 1022.1 942.0 +0.5
12 19.04 В 1 50 км ясно -12.9 -16.7 73 -15 -15 1026.6 942.7
15 19.04 СВ 1 50 км ясно -17.2 -19.5 82 -20 -20 1028.2 942.8
18 19.04 В 1 50 км ясно -21.4 -23.3 85 -25 -25 1030.0 943.0
21 19.04 СВ 1 50 км 10/0
[Cs]
-15.7 -19.2 74 -18 -16 1027.8 942.9 -21.4 19
00 20.04 СВ 1 50 км 9/0
[Ci fib]
-6.3 -14.6 52 -8 -1 1023.4 941.7
03 20.04 ЮЗ 1 50 км 10/0
[As trans Cs]
+1.2 -12.7 35 0 +6 1019.3 940.0
06 20.04 СВ 2 50 км 10/0
[As trans Cs]
+0.8 -14.0 32 -2 0 1018.2 938.9
09 20.04 СВ 2 50 км 9/0
[Ac As]
-2.1 -11.7 48 -5 -5 1019.5 939.3 +2.2
12 20.04 З 1 50 км 4/0
[Ac trans]
-9.6 -15.0 65 -12 -12 1022.9 940.3
15 20.04 В 1 50 км 3/0
[Ac trans]
-15.4 -18.3 78 -18 -18 1025.2 940.6
18 20.04 СВ 1 50 км 1/0
[Ac trans]
-15.7 -17.8 84 -18 -18 1025.9 941.1
21 20.04 СВ 2 50 км 4/3 1000 м
[Sc Ac trans]
-12.2 -17.4 65 -17 -15 1025.1 941.5 -16.8 18
00 21.04 СВ 1 50 км 10/4 1000 м
[Sc Ac trans Cs]
-5.5 -14.5 49 -7 -5 1022.9 941.5
03 21.04 штиль 0 50 км 9/3 1000 м
[Sc Ac trans Cs]
+2.1 -12.5 33 +2 +7 1019.2 940.2
06 21.04 ЮЗ 1 50 км 3/0
[Ci fib]
+5.7 -10.1 31 +6 +10 1017.5 939.6
09 21.04 СВ 2 50 км 3/0
[Ci fib]
+2.1 -8.5 45 -0 -0 1018.8 939.9 +6.1
12 21.04 ЮВ 1 50 км ясно -7.4 -11.1 75 -10 -10 1023.0 941.0
15 21.04 В 1 50 км ясно -12.8 -14.2 89 -15 -15 1025.6 941.7
18 21.04 В 1 50 км ясно -14.6 -16.0 89 -17 -17 1026.6 942.1
21 21.04 СВ 1 50 км ясно -9.4 -13.8 70 -12 -9 1025.5 942.7 -15.9 16
00 22.04 ЮЗ 1 50 км ясно -0.1 -9.5 49 -1 +8 1021.8 942.1
03 22.04 ЮЗ 1 50 км ясно +4.2 -7.6 42 +4 +14 опасность
простуды
1020.0 941.5
06 22.04 штиль 0 50 км ясно +7.3 -6.6 37 +7 +13 1018.8 941.3
09 22.04 СВ 2 50 км ясно +4.5 -6.1 46 +3 +3 1020.3 941.9 +7.9
12 22.04 штиль 0 50 км ясно -4.8 -7.9 79 -6 -6 1024.3 943.0
15 22.04 В 1 50 км ясно -10.6 -12.0 89 -13 -13 1026.9 943.6
18 22.04 В 1 50 км ясно -13.9 -15.4 88 -16 -16 1029.0 944.6
21 22.04 СВ 2 50 км 3/0
[Ci fib]
-7.8 -11.2 77 -12 -10 1027.8 945.3 -14.8 12
00 23.04 Ю 1 50 км ясно +1.2 -7.7 51 0 +9 1024.9 945.2
03 23.04 СВ 4 50 км ясно +6.0 -7.4 38 +3 +9 1022.8 944.7
06 23.04 В 3 50 км 3/0
[Ci fib]
+6.1 -7.1 38 +4 +7 1023.0 944.8
09 23.04 СВ 2 50 км 4/0
[Ci fib]
+4.8 -5.7 46 +3 +3 1024.2 945.6 +6.9
12 23.04 В 1 50 км 6/0
[Ci fib]
-2.3 -6.5 73 -4 -4 1027.4 946.6
15 23.04 В 2 50 км 4/0
[Ci fib]
-8.0 -9.8 87 -12 -12 1029.7 947.0
18 23.04 В 1 50 км 4/0
[Ci fib]
-11.1 -12.3 91 -13 -13 1031.5 947.7
21 23.04 СВ 2 н/о н/о -5.4 -9.5 73 -10 -10 1029.9 948.0 -11.9
00 24.04 СВ 2 50 км ясно +1.7 -7.2 52 -1 +7 1027.2 946.6
03 24.04 ЮЗ 2 50 км ясно +6.2 -6.6 39 +5 +14 опасность
простуды
1023.6 945.4
06 24.04 ЮЗ 2 н/о н/о +6.8 -5.9 40 +5 +5 1022.0 944.1
09 24.04 ЮЗ 2 50 км ясно +5.0 -6.1 44 +3 +3 1021.6 943.2 +7.2
12 24.04 ЮЗ 3 50 км ясно -2.1 -6.9 70 -7 -7 1023.3 942.8
15 24.04 ЮВ 1 50 км ясно -9.5 -11.3 87 -12 -12 1025.1 942.3
18 24.04 В 2 50 км ясно -12.4 -13.7 90 -17 -17 1025.6 941.9
21 24.04 СВ 1 50 км ясно -6.4 -9.9 76 -9 -6 1022.6 941.0 -12.7 6
00 25.04 Ю 2 50 км ясно +0.2 -7.1 58 -3 +5 1019.0 939.5
03 25.04 ЮЗ 4 50 км ясно +5.1 -6.6 43 +2 +8 1015.6 937.8

 

Местоположение метеостанции Сусуман (Магаданская область, Россия): широта 62.78 долгота 148.10 высота над уровнем моря 655 м.

В архиве по умолчанию представлена погода в Сусумане за последнюю неделю. Архивные данные за месяц целиком и за предыдущие месяцы, начиная с января 2011 года, Вы можете получить, выбрав интересующий диапазон дат из раскрывающегося списка и нажав кнопку "Ввод!".

Внимание! Время в таблицах - всемирное. Для получения местного времени необходимо прибавить поправку, которая в Сусумане равна 11 ч.

Смотрите также архив погоды в соседних городах и на ближайших метеорологических станциях:

Погода в Ягодной (Магаданская область, Россия) (82 км)
Погода в Озере Джека Лондона (Магаданская область, Россия) (106 км)
Погода в Колымской (Магаданская область, Россия) (107 км)
Погода в Совхозе Эльген (Магаданская область, Россия) (127 км)
Погода в Усть-Бохапче (Магаданская область, Россия) (149 км)
Погода в Делянкире (Якутия, Россия) (171 км)
Погода в Усть-Омчуге (Магаданская область, Россия) (201 км)
Погода в Среднекане (Магаданская область, Россия) (218 км)
Погода в Сеймчане (Магаданская область, Россия) (219 км)
Погода в Оймяконе (Якутия, Россия) (258 км)

Пояснения к столбцам:

Ветер - указаны скорость ветра в м/с - средняя за 10 мин, порывы в срок и между сроками (в фигурных скобках) и направление, откуда дует ветер: С - северный, СВ - северо-восточный, В - восточный, ЮВ - юго-восточный, Ю - южный, ЮЗ - юго-западный, З - западный, СЗ - северо-западный.
Видимость - горизонтальная дальность видимости в метрах или километрах. При видимости от 1 до 10 км при отсутствии осадков обычно наблюдается дымка, при ухудшении видимости до 1 км и менее - туман. В сухую погоду видимость может ухудшаться дымом, пылью или мглою.
Явления - указаны атмосферные явления, наблюдавшиеся в срок или в последний час перед сроком; фигурными скобками обозначены явления, наблюдавшиеся между сроками (за 1-3 часа до срока); квадратными скобками обозначены град или гололедные отложения с указанием их диаметра в мм.
Облачность - указаны через наклонную черту общая и нижняя облачность в баллах и высота нижней границы облаков в метрах; квадратными скобками обозначены формы облаков: Ci - перистые, Cs - перисто-слоистые, Cc - перисто-кучевые, Ac - высококучевые, As - высокослоистые, Sc - слоисто-кучевые, Ns - слоисто-дождевые, Cu - кучевые, Cb - кучево-дождевые. Подробнее классификацию облаков см. в Атласе облаков (PDF).
T - Температура воздуха - температура, измеренная на высоте 2 м над землей.
Td - Температура точки росы - температура, при понижении до которой содержащийся в воздухе водяной пар достигнет насыщения.
f - Относительная влажность воздуха - влажноcть воздуха, измеренная на высоте 2 м над землей.
Te - Эффективная температура - температура, которую ощущает одетый по сезону человек в тени. Характеристика душности погоды. При расчете учитывается влияние влажности воздуха и скорости ветра на теплоощущения человека.
Tes - Эффективная температура на солнце - температура, которую ощущает человек, с поправкой на солнечный нагрев. Характеристика знойности погоды. Зависит от высоты солнца над горизонтом, облачности и скорости ветра. Ночью, в пасмурную погоду, а также при ветре 12 м/с и более поправка равна нулю.
P - Атмосферное давление - приведенное к уровню моря атмосферное давление.
Po - Атмосферное давление - измеренное на уровне метеостанции атмосферное давление.
Tmin - Минимальная температура - минимум температуры воздуха на высоте 2 м над землей.
Tmax - Максимальная температура - максимум температуры воздуха на высоте 2 м над землей.
R - Количество осадков - Количество выпавших осадков за период времени, мм. При наведении курсора мыши на число - период времени, за который выпало указанное количество осадков.
R24 - Количество осадков - Количество выпавших осадков за 24 часа, мм.
S - Снежный покров - Высота снежного покрова, см. При наведении курсора мыши на число - состояние снежного покрова и степень покрытия местности в баллах.